Location: Alsip
(41.6689°N, 87.7387°W)
Time: 14:30:54
(UTC+00:00)

Cosmos 2219 Rocket - Pass Details

Date: 14 July 2020
Orbit: 827 x 848 km, 71.0° (Epoch: 12 August)

Event Time Altitude Azimuth Distance (km) Brightness Sun altitude
Rises 02:48:30 0° 232° (SW) 3,357 5.4 -13.2°
Reaches altitude 10° 02:51:12 10° 243° (WSW) 2,430 4.8 -13.5°
Maximum altitude 02:56:04 30° 304° (NW) 1,445 4.2 -14.1°
Drops below altitude 10° 03:00:59 10° 5° (N) 2,452 5.2 -14.8°
Sets 03:03:45 0° 16° (NNE) 3,394 5.8 -15.1°
